Location: Bieg
(49.3499°N, 10.3835°E)
Time: 22:44:53
(UTC+00:00)

CZ-2C R/B - Pass Details

Date: 23 May 2024
Orbit: 703 x 904 km, 98.2° (Epoch: 25 June)

Event Time Altitude Azimuth Distance (km) Brightness Sun altitude
Rises 01:34:59 0° 14° (NNE) 3,539 7.9 -13.4°
Reaches altitude 10° 01:37:26 10° 16° (NNE) 2,597 7.0 -13.2°
Maximum altitude 01:43:17 79° 103° (ESE) 923 3.4 -12.7°
Enters shadow 01:48:29 13° 190° (S) 2,343 5.0 -12.2°
